Terug naar catalogus

ONEWEB-0506

ActiefCommunicatiePO
NORAD 54124·PAYLOAD·🇬🇧 United Kingdom

Gelanceerd Oct 22, 2022 vanaf Satish Dhawan Space Centre

Loading…

Volgende Passages (komende 24 uur)

TLE

VersSource: CelesTrak SupGP

Epoch: Sep 15, 2026, 00:34 UTC

1 54124C 22138M   26258.02411296  .00002179  00000+0  54488-2 0  2587
2 54124  87.9107 287.0726 0002091  85.6357 300.8491 13.19722382    12

Volg ONEWEB-0506 in realtime met AllMySat

Download on the App Store